Flag for U.S.A. Weather past 2 weeks in Ontario, Oregon, U.S.A.

Now
41 °F

Clear.


Feels Like: 41 °F
Forecast: 35 / 73 °F
Wind: No wind

Location: Ontario Municipal Airport


UV Index: 0 (Low)

Visibility: 10 mi


Pressure: 30.21 "Hg

Humidity: 58%

Dew point: 27 °F

Location of OntarioLocation

Historic Weather in Ontario

°F

Ontario temperature yesterday

Maximum temperature yesterday: 67 °F (at 3:53 PM)
Minimum temperature yesterday: 44 °F (at 7:53 AM)
Average temperature yesterday: 55 °F

Past Weeks' High & Low Weather Summary

 TemperatureHumidityPressure
High78 °F (Apr 19, 5:53 PM)89% (Apr 6, 5:53 AM)30.39 "Hg (Apr 6, 5:53 AM)
Low28 °F (Apr 14, 5:53 AM)11% (Apr 13, 6:53 PM)29.61 "Hg (Apr 17, 6:53 PM)
Average54 °F42%30.06 "Hg
* Reported Apr 6 1:53 AM — Apr 21 1:53 AM, Ontario, Weather by CustomWeather, © 2014

Note: Actual official high and low records may vary slightly from our data, if they occured in-between our weather recording intervals... More about our weather records

Advertising

Historic Weather Conditions — Data for Previous 24 hours

 ConditionsComfort  
Time TempWeatherWind HumidityBarometerVisibility
1:53 AM
Apr 21
42 °FClear.6 mph55%30.22 "Hg10 mi
12:53 AM44 °FClear.3 mph55%30.22 "Hg10 mi
11:53 PM
Apr 20
49 °FClear.No wind44%30.21 "Hg10 mi
10:53 PM51 °FClear.No wind42%30.22 "Hg10 mi
9:53 PM54 °FClear.No wind33%30.22 "Hg10 mi
8:53 PM60 °FSunny.No wind23%30.21 "Hg10 mi
7:53 PM65 °FSunny.5 mph18%30.20 "Hg10 mi
6:53 PM67 °FSunny.5 mph15%30.21 "Hg10 mi
5:53 PM67 °FSunny.No wind13%30.22 "Hg10 mi
4:53 PM66 °FSunny.No wind13%30.22 "Hg10 mi
3:53 PM67 °FSunny.3 mph14%30.23 "Hg10 mi
2:53 PM63 °FSunny.5 mph17%30.25 "Hg10 mi
1:53 PM62 °FSunny.8 mph20%30.28 "Hg10 mi
12:53 PM60 °FSunny.3 mph25%30.29 "Hg10 mi
11:53 AM58 °FSunny.8 mph31%30.30 "Hg10 mi
10:53 AM55 °FSunny.6 mph40%30.31 "Hg10 mi
9:53 AM49 °FSunny.12 mph52%30.32 "Hg10 mi
8:53 AM47 °FSunny.10 mph54%30.30 "Hg10 mi
7:53 AM44 °FClear.13 mph60%30.27 "Hg10 mi
6:53 AM45 °FClear.12 mph56%30.24 "Hg10 mi
5:53 AM45 °FClear.10 mph58%30.22 "Hg10 mi
4:53 AM46 °FClear.14 mph56%30.20 "Hg10 mi
3:53 AM47 °FClear.16 mph54%30.18 "Hg10 mi
Weather by CustomWeather, © 2014

See weather overview